Location: Cheadle
(51.0146°N, 113.5417°W)
Time: 15:28:37
(UTC+00:00)

BlueWalker 3 - Pass Details

Date: 21 April 2024
Orbit: 482 x 494 km, 53.2° (Epoch: 19 May)

Event Time Altitude Azimuth Distance (km) Brightness Sun altitude
Rises 06:51:00 0° 285° (WNW) 2,586 5.9 -26.3°
Reaches altitude 10° 06:53:12 10° 287° (WNW) 1,703 4.9 -26.3°
Enters shadow 06:54:42 22° 291° (WNW) 1,120 3.9 -26.4°
